When you browse on this site, cookies collect data to enhance your experience and personalize the content and advertising you see.
Visit our Privacy Policy to learn more. By continuing to use the site, you agree to this use of cookies and data.
EN

Hourly Weather Port-au-Princ

Today, 9 July, Thursday

Time Temperature Precipitation Wind Pressure Humidity
00:00 +27°C° 0 mm 1 mps 735 mmHg 84%
01:00 +27°C° 0 mm 1 mps 736 mmHg 79%
02:00 +26°C° 0 mm 1 mps 735 mmHg 79%
03:00 +26°C° 0 mm 1 mps 735 mmHg 80%
04:00 +26°C° 0 mm 1 mps 735 mmHg 80%
05:00 +27°C° 0 mm 1 mps 736 mmHg 79%
06:00 +27°C° 0 mm 1 mps 736 mmHg 78%
07:00 +28°C° 0 mm 2 mps 736 mmHg 77%
08:00 +29°C° 0 mm 2 mps 737 mmHg 72%
09:00 +30°C° 0 mm 2 mps 737 mmHg 68%
10:00 +32°C° 0 mm 2 mps 737 mmHg 63%
11:00 +32°C° 0.2 mm 2 mps 737 mmHg 61%
12:00 +34°C° 0.2 mm 2 mps 737 mmHg 59%
13:00 +34°C° 0.2 mm 2 mps 736 mmHg 56%
14:00 +34°C° 0.4 mm 2 mps 736 mmHg 58%
15:00 +34°C° 0.4 mm 2 mps 736 mmHg 59%
16:00 +32°C° 0.4 mm 2 mps 736 mmHg 60%
17:00 +31°C° 0.1 mm 2 mps 736 mmHg 66%
18:00 +30°C° 0.1 mm 1 mps 736 mmHg 72%
19:00 +28°C° 0.1 mm 1 mps 736 mmHg 78%
20:00 +28°C° 0 mm 1 mps 736 mmHg 79%
21:00 +27°C° 0 mm 1 mps 737 mmHg 80%
22:00 +27°C° 0 mm 2 mps 737 mmHg 81%
23:00 +26°C° 0 mm 2 mps 737 mmHg 81%

Tomorrow, 10 July, Friday

Time Temperature Precipitation Wind Pressure Humidity
00:00 +26°C° 0 mm 2 mps 737 mmHg 81%
01:00 +26°C° 0 mm 2 mps 736 mmHg 80%
02:00 +26°C° 0 mm 2 mps 736 mmHg 80%
03:00 +26°C° 0 mm 2 mps 736 mmHg 79%
04:00 +25°C° 0 mm 2 mps 736 mmHg 78%
05:00 +26°C° 0 mm 1 mps 736 mmHg 76%
06:00 +27°C° 0 mm 1 mps 737 mmHg 74%
07:00 +27°C° 0 mm 1 mps 737 mmHg 72%
08:00 +29°C° 0 mm 2 mps 737 mmHg 67%
09:00 +30°C° 0 mm 2 mps 737 mmHg 62%
10:00 +32°C° 0 mm 2 mps 737 mmHg 57%
11:00 +32°C° 0.1 mm 2 mps 737 mmHg 54%
12:00 +34°C° 0.1 mm 2 mps 737 mmHg 51%
13:00 +35°C° 0.1 mm 2 mps 737 mmHg 48%
14:00 +34°C° 0.2 mm 3 mps 736 mmHg 54%
15:00 +33°C° 0.2 mm 3 mps 736 mmHg 59%
16:00 +31°C° 0.2 mm 3 mps 735 mmHg 64%
17:00 +30°C° 0.7 mm 2 mps 736 mmHg 70%
18:00 +29°C° 0.7 mm 1 mps 736 mmHg 76%
19:00 +28°C° 0.7 mm 1 mps 736 mmHg 82%
20:00 +27°C° 0.4 mm 1 mps 737 mmHg 82%
21:00 +27°C° 0.4 mm 1 mps 737 mmHg 82%
22:00 +27°C° 0.4 mm 1 mps 737 mmHg 83%
23:00 +26°C° 0 mm 1 mps 737 mmHg 83%

Day after tomorrow, 11 July, Saturday

Time Temperature Precipitation Wind Pressure Humidity
00:00 +26°C° 0 mm 1 mps 736 mmHg 83%
01:00 +26°C° 0 mm 1 mps 736 mmHg 83%
02:00 +25°C° 0 mm 1 mps 736 mmHg 82%
03:00 +25°C° 0 mm 1 mps 736 mmHg 82%
04:00 +25°C° 0 mm 2 mps 736 mmHg 82%
05:00 +25°C° 0 mm 2 mps 736 mmHg 80%
06:00 +26°C° 0 mm 1 mps 736 mmHg 77%
07:00 +27°C° 0 mm 1 mps 736 mmHg 75%
08:00 +28°C° 0 mm 2 mps 737 mmHg 68%
09:00 +30°C° 0 mm 2 mps 737 mmHg 61%
10:00 +31°C° 0 mm 2 mps 737 mmHg 54%
11:00 +32°C° 0 mm 2 mps 737 mmHg 52%
12:00 +34°C° 0 mm 2 mps 737 mmHg 50%
13:00 +34°C° 0 mm 2 mps 736 mmHg 48%
14:00 +34°C° 0.2 mm 2 mps 736 mmHg 51%
15:00 +32°C° 0.2 mm 2 mps 735 mmHg 54%
16:00 +32°C° 0.2 mm 2 mps 735 mmHg 58%
17:00 +30°C° 0.1 mm 2 mps 735 mmHg 64%
18:00 +29°C° 0.1 mm 1 mps 735 mmHg 70%
19:00 +27°C° 0.1 mm 1 mps 735 mmHg 77%
20:00 +27°C° 0 mm 1 mps 736 mmHg 77%
21:00 +27°C° 0 mm 1 mps 736 mmHg 77%
22:00 +26°C° 0 mm 1 mps 737 mmHg 77%
23:00 +26°C° 0 mm 1 mps 736 mmHg 77%

12 July, Sunday

Time Temperature Precipitation Wind Pressure Humidity
00:00 +25°C° 0 mm 1 mps 736 mmHg 77%
01:00 +25°C° 0 mm 1 mps 736 mmHg 77%
02:00 +25°C° 0 mm 1 mps 736 mmHg 78%
03:00 +25°C° 0 mm 1 mps 735 mmHg 78%
04:00 +25°C° 0 mm 1 mps 735 mmHg 79%
05:00 +25°C° 0 mm 1 mps 735 mmHg 76%
06:00 +26°C° 0 mm 1 mps 736 mmHg 73%
07:00 +27°C° 0 mm 1 mps 736 mmHg 70%
08:00 +28°C° 0 mm 1 mps 736 mmHg 65%
09:00 +30°C° 0 mm 1 mps 736 mmHg 60%
10:00 +31°C° 0 mm 1 mps 737 mmHg 55%
11:00 +32°C° 0 mm 1 mps 736 mmHg 55%
12:00 +32°C° 0 mm 2 mps 736 mmHg 55%
13:00 +32°C° 0 mm 2 mps 736 mmHg 54%
14:00 +32°C° 0.4 mm 2 mps 735 mmHg 60%
15:00 +31°C° 0.4 mm 1 mps 735 mmHg 65%
16:00 +30°C° 0.4 mm 1 mps 734 mmHg 70%
17:00 +29°C° 0.4 mm 1 mps 735 mmHg 72%
18:00 +28°C° 0.4 mm 1 mps 735 mmHg 74%
19:00 +26°C° 0.4 mm 0 mps 735 mmHg 77%
20:00 +27°C° 0 mm 1 mps 736 mmHg 78%
21:00 +27°C° 0 mm 1 mps 736 mmHg 80%
22:00 +26°C° 0 mm 1 mps 737 mmHg 81%
23:00 +26°C° 0 mm 1 mps 737 mmHg 82%

13 July, Monday

Time Temperature Precipitation Wind Pressure Humidity
00:00 +26°C° 0 mm 1 mps 736 mmHg 83%
01:00 +25°C° 0 mm 1 mps 736 mmHg 84%
02:00 +25°C° 0 mm 1 mps 736 mmHg 84%
03:00 +25°C° 0 mm 1 mps 736 mmHg 84%
04:00 +25°C° 0 mm 1 mps 736 mmHg 84%
05:00 +26°C° 0 mm 1 mps 736 mmHg 81%
06:00 +26°C° 0 mm 1 mps 736 mmHg 78%
07:00 +27°C° 0 mm 1 mps 736 mmHg 75%
08:00 +29°C° 0 mm 1 mps 737 mmHg 70%
09:00 +30°C° 0 mm 1 mps 737 mmHg 64%
10:00 +31°C° 0 mm 1 mps 738 mmHg 59%
11:00 +32°C° 0.1 mm 1 mps 737 mmHg 58%
12:00 +32°C° 0.1 mm 1 mps 737 mmHg 57%
13:00 +34°C° 0.1 mm 2 mps 737 mmHg 56%
14:00 +34°C° 0.3 mm 2 mps 736 mmHg 58%
15:00 +32°C° 0.3 mm 2 mps 736 mmHg 60%
16:00 +32°C° 0.3 mm 2 mps 736 mmHg 62%
17:00 +31°C° 0.2 mm 2 mps 736 mmHg 68%
18:00 +29°C° 0.2 mm 1 mps 736 mmHg 75%
19:00 +28°C° 0.2 mm 1 mps 736 mmHg 82%
20:00 +28°C° 0.1 mm 1 mps 737 mmHg 83%
21:00 +27°C° 0.1 mm 1 mps 737 mmHg 84%
22:00 +27°C° 0.1 mm 1 mps 737 mmHg 85%
23:00 +27°C° 0 mm 1 mps 737 mmHg 86%

14 July, Tuesday

Time Temperature Precipitation Wind Pressure Humidity
00:00 +26°C° 0 mm 1 mps 736 mmHg 87%
01:00 +26°C° 0 mm 1 mps 736 mmHg 88%
02:00 +26°C° 0 mm 1 mps 736 mmHg 88%
03:00 +26°C° 0 mm 1 mps 736 mmHg 88%
04:00 +26°C° 0 mm 2 mps 736 mmHg 88%
05:00 +26°C° 0 mm 2 mps 736 mmHg 85%
06:00 +27°C° 0 mm 2 mps 736 mmHg 82%
07:00 +28°C° 0 mm 2 mps 737 mmHg 79%
08:00 +29°C° 0 mm 2 mps 737 mmHg 72%
09:00 +30°C° 0 mm 2 mps 737 mmHg 66%
10:00 +32°C° 0 mm 2 mps 737 mmHg 59%
11:00 +34°C° 0 mm 2 mps 737 mmHg 56%
12:00 +34°C° 0 mm 2 mps 737 mmHg 53%
13:00 +35°C° 0 mm 2 mps 736 mmHg 50%
14:00 +35°C° 0.2 mm 2 mps 736 mmHg 54%
15:00 +34°C° 0.2 mm 2 mps 736 mmHg 57%
16:00 +33°C° 0.2 mm 3 mps 735 mmHg 61%
17:00 +31°C° 0.5 mm 2 mps 736 mmHg 69%
18:00 +30°C° 0.5 mm 2 mps 736 mmHg 76%
19:00 +28°C° 0.5 mm 1 mps 736 mmHg 84%
20:00 +28°C° 0.4 mm 1 mps 737 mmHg 85%
21:00 +27°C° 0.4 mm 1 mps 737 mmHg 86%
22:00 +25°C° 0.4 mm 0 mps 737 mmHg 87%
23:00 +27°C° 0 mm 1 mps 737 mmHg 87%
Show more